Year,Month,Day,Hour,Minute,Value (Times are PST for temperature in C)
2010,07,15,09,48,17.80
2010,07,15,09,49,17.90
2010,07,15,09,50,18.00
2010,07,15,09,51,18.00
2010,07,15,09,52,18.10
2010,07,15,09,53,18.20
2010,07,15,09,54,18.20
2010,07,15,09,55,18.20
2010,07,15,09,56,18.20
2010,07,15,09,57,18.20
2010,07,15,09,58,18.20
2010,07,15,09,59,18.20
2010,07,15,10,00,18.10
2010,07,15,10,01,18.10
2010,07,15,10,02,18.10
2010,07,15,10,03,18.20
2010,07,15,10,04,18.20
2010,07,15,10,05,18.30
2010,07,15,10,06,18.30
2010,07,15,10,07,18.40
2010,07,15,10,08,18.40
2010,07,15,10,09,18.40
2010,07,15,10,10,18.40
2010,07,15,10,11,18.40
2010,07,15,10,12,18.40
2010,07,15,10,13,18.50
2010,07,15,10,14,18.50
2010,07,15,10,15,18.60
2010,07,15,10,16,18.60
2010,07,15,10,17,18.60
2010,07,15,10,18,18.70
2010,07,15,10,19,18.70
2010,07,15,10,20,18.70
2010,07,15,10,21,18.80
2010,07,15,10,22,18.80
2010,07,15,10,23,18.80
2010,07,15,10,24,18.90
2010,07,15,10,25,19.00
2010,07,15,10,26,19.10
2010,07,15,10,27,19.20
2010,07,15,10,28,19.20
2010,07,15,10,29,19.20
2010,07,15,10,30,19.20
2010,07,15,10,31,19.20
2010,07,15,10,32,19.10
2010,07,15,10,33,19.00
2010,07,15,10,34,19.00
2010,07,15,10,35,18.90
2010,07,15,10,36,18.90
2010,07,15,10,37,18.90
2010,07,15,10,38,19.00
2010,07,15,10,39,18.90
2010,07,15,10,40,18.90
2010,07,15,10,41,18.90
2010,07,15,10,42,18.90
2010,07,15,10,43,18.90
2010,07,15,10,44,18.90
2010,07,15,10,45,19.00
2010,07,15,10,46,19.10
2010,07,15,10,47,19.20
2010,07,15,10,48,19.20
2010,07,15,10,49,19.30
2010,07,15,10,50,19.30
2010,07,15,10,51,19.40
2010,07,15,10,52,19.40
2010,07,15,10,53,19.50
2010,07,15,10,54,19.60
2010,07,15,10,55,19.60
2010,07,15,10,56,19.70
2010,07,15,10,57,19.70
2010,07,15,10,58,19.80
2010,07,15,10,59,19.90
2010,07,15,11,00,20.00
2010,07,15,11,01,20.00
2010,07,15,11,02,20.10
2010,07,15,11,03,20.20
2010,07,15,11,04,20.20
2010,07,15,11,05,20.30
2010,07,15,11,06,20.40
2010,07,15,11,07,20.40
2010,07,15,11,08,20.30
2010,07,15,11,09,20.20
2010,07,15,11,10,20.20
2010,07,15,11,11,20.20
2010,07,15,11,12,20.20
2010,07,15,11,13,20.20
2010,07,15,11,14,20.30
2010,07,15,11,15,20.30
2010,07,15,11,16,20.30
2010,07,15,11,17,20.50
2010,07,15,11,18,20.60
2010,07,15,11,19,20.70
2010,07,15,11,20,20.80
2010,07,15,11,21,20.70
2010,07,15,11,22,20.70
2010,07,15,11,23,20.80
2010,07,15,11,24,20.80
2010,07,15,11,25,20.90
2010,07,15,11,26,20.90
2010,07,15,11,27,20.90
2010,07,15,11,28,20.90
2010,07,15,11,29,20.90
2010,07,15,11,30,21.00
2010,07,15,11,31,21.10
2010,07,15,11,32,21.20
2010,07,15,11,33,21.10
2010,07,15,11,34,21.00
2010,07,15,11,35,21.00
2010,07,15,11,36,21.00
2010,07,15,11,37,21.10
2010,07,15,11,38,21.10
2010,07,15,11,39,21.10
2010,07,15,11,40,21.00
2010,07,15,11,41,20.80
2010,07,15,11,42,20.70
2010,07,15,11,43,20.70
2010,07,15,11,44,20.70
2010,07,15,11,45,20.70
2010,07,15,11,46,20.80
2010,07,15,11,47,20.80
2010,07,15,11,48,20.70
2010,07,15,11,49,20.60
2010,07,15,11,50,20.50
2010,07,15,11,51,20.50
2010,07,15,11,52,20.60
2010,07,15,11,53,20.60
2010,07,15,11,54,20.70
2010,07,15,11,55,20.80
2010,07,15,11,56,20.80
2010,07,15,11,57,20.70
2010,07,15,11,58,20.70
2010,07,15,11,59,20.70
2010,07,15,12,00,20.70
2010,07,15,12,01,20.70
2010,07,15,12,02,20.70
2010,07,15,12,03,20.70
2010,07,15,12,04,20.70
2010,07,15,12,05,20.80
2010,07,15,12,06,20.80
2010,07,15,12,07,20.90
2010,07,15,12,08,21.00
2010,07,15,12,09,21.10
2010,07,15,12,10,21.20
2010,07,15,12,11,21.30
2010,07,15,12,12,21.40
2010,07,15,12,13,21.30
2010,07,15,12,14,21.20
2010,07,15,12,15,21.10
2010,07,15,12,16,21.10
2010,07,15,12,17,21.00
2010,07,15,12,18,21.00
2010,07,15,12,19,20.90
2010,07,15,12,20,20.80
2010,07,15,12,21,20.80
2010,07,15,12,22,20.80
2010,07,15,12,23,20.80
2010,07,15,12,24,20.90
2010,07,15,12,25,21.00
2010,07,15,12,26,21.10
2010,07,15,12,27,21.20
2010,07,15,12,28,21.30
2010,07,15,12,29,21.40
2010,07,15,12,30,21.40
2010,07,15,12,31,21.50
2010,07,15,12,32,21.60
2010,07,15,12,33,21.70
2010,07,15,12,34,21.70
2010,07,15,12,35,21.80
2010,07,15,12,36,21.80
2010,07,15,12,37,21.80
2010,07,15,12,38,21.90
2010,07,15,12,39,22.00
2010,07,15,12,40,22.10
2010,07,15,12,41,22.10
2010,07,15,12,42,22.10
2010,07,15,12,43,22.10
2010,07,15,12,44,22.10
2010,07,15,12,45,22.10
2010,07,15,12,46,22.10
2010,07,15,12,47,22.10
2010,07,15,12,48,22.00
2010,07,15,12,49,22.00
2010,07,15,12,50,22.00
2010,07,15,12,51,22.10
2010,07,15,12,52,22.10
2010,07,15,12,53,22.10
2010,07,15,12,54,22.20
2010,07,15,12,55,22.20
2010,07,15,12,56,22.30
2010,07,15,12,57,22.40
2010,07,15,12,58,22.40
2010,07,15,12,59,22.20
2010,07,15,13,00,22.10
2010,07,15,13,01,22.10
2010,07,15,13,02,21.90
2010,07,15,13,03,21.80
2010,07,15,13,04,21.60
2010,07,15,13,05,21.60
2010,07,15,13,06,21.70
2010,07,15,13,07,21.80
2010,07,15,13,08,21.90
2010,07,15,13,09,22.00
2010,07,15,13,10,22.10
2010,07,15,13,11,22.00
2010,07,15,13,12,21.80
2010,07,15,13,13,21.80
2010,07,15,13,14,21.80
2010,07,15,13,15,21.80
2010,07,15,13,16,21.90
2010,07,15,13,17,21.90
2010,07,15,13,18,21.90
2010,07,15,13,19,21.90
2010,07,15,13,20,21.80
2010,07,15,13,21,21.80
2010,07,15,13,22,21.80
2010,07,15,13,23,21.60
2010,07,15,13,24,21.40
2010,07,15,13,25,21.40
2010,07,15,13,26,21.50
2010,07,15,13,27,21.60
2010,07,15,13,28,21.60
2010,07,15,13,29,21.60
2010,07,15,13,30,21.70
2010,07,15,13,31,21.70
2010,07,15,13,32,21.70
2010,07,15,13,33,21.80
2010,07,15,13,34,21.90
2010,07,15,13,35,22.00
2010,07,15,13,36,22.10
2010,07,15,13,37,22.20
2010,07,15,13,38,22.20
2010,07,15,13,39,22.30
2010,07,15,13,40,22.40
2010,07,15,13,41,22.50
2010,07,15,13,42,22.40
2010,07,15,13,43,22.40
2010,07,15,13,44,22.40
2010,07,15,13,45,22.30
2010,07,15,13,46,22.30
2010,07,15,13,47,22.20
2010,07,15,13,48,22.10
2010,07,15,13,49,22.00
2010,07,15,13,50,21.90
2010,07,15,13,51,21.90
2010,07,15,13,52,22.00
2010,07,15,13,53,22.10
2010,07,15,13,54,22.10
2010,07,15,13,55,22.10
2010,07,15,13,56,22.10
2010,07,15,13,57,22.10
2010,07,15,13,58,22.10
2010,07,15,13,59,22.00
2010,07,15,14,00,21.90
2010,07,15,14,01,21.90
2010,07,15,14,02,21.80
2010,07,15,14,03,21.80
2010,07,15,14,04,21.60
2010,07,15,14,05,21.50
2010,07,15,14,06,21.40
2010,07,15,14,07,21.50
2010,07,15,14,08,21.60
2010,07,15,14,09,21.70
2010,07,15,14,10,21.80
2010,07,15,14,11,21.80
2010,07,15,14,12,21.80
2010,07,15,14,13,21.80
2010,07,15,14,14,21.80
2010,07,15,14,15,21.80
2010,07,15,14,16,21.80
2010,07,15,14,17,21.80
2010,07,15,14,18,21.80
2010,07,15,14,19,21.90
2010,07,15,14,20,21.90
2010,07,15,14,21,21.80
2010,07,15,14,22,21.60
2010,07,15,14,23,21.40
2010,07,15,14,24,21.10
2010,07,15,14,25,21.10
2010,07,15,14,26,21.10
2010,07,15,14,27,21.10
2010,07,15,14,28,21.20
2010,07,15,14,29,21.30
2010,07,15,14,30,21.50
2010,07,15,14,31,21.50
2010,07,15,14,32,21.60
2010,07,15,14,33,21.60
2010,07,15,14,34,21.70
2010,07,15,14,35,21.80
2010,07,15,14,36,21.80
2010,07,15,14,37,21.80
2010,07,15,14,38,21.80
2010,07,15,14,39,21.90
2010,07,15,14,40,21.80
2010,07,15,14,41,21.80
2010,07,15,14,42,21.80
2010,07,15,14,43,21.80
2010,07,15,14,44,21.80
2010,07,15,14,45,21.90
2010,07,15,14,46,22.00
2010,07,15,14,47,22.10
2010,07,15,14,48,22.30
2010,07,15,14,49,22.40
2010,07,15,14,50,22.40
2010,07,15,14,51,22.40
2010,07,15,14,52,22.50
2010,07,15,14,53,22.50
2010,07,15,14,54,22.60
2010,07,15,14,55,22.70
2010,07,15,14,56,22.70
2010,07,15,14,57,22.80
2010,07,15,14,58,22.70
2010,07,15,14,59,22.70
2010,07,15,15,00,22.70
2010,07,15,15,01,22.70
2010,07,15,15,02,22.70
2010,07,15,15,03,22.50
2010,07,15,15,04,22.40
2010,07,15,15,05,22.30
2010,07,15,15,06,22.20
2010,07,15,15,07,22.20
2010,07,15,15,08,22.20
2010,07,15,15,09,22.20
2010,07,15,15,10,22.10
2010,07,15,15,11,22.00
2010,07,15,15,12,21.90
2010,07,15,15,13,21.80
2010,07,15,15,14,21.80
2010,07,15,15,15,21.90
2010,07,15,15,16,21.90
2010,07,15,15,17,22.00
2010,07,15,15,18,22.10
2010,07,15,15,19,22.10
2010,07,15,15,20,22.20
2010,07,15,15,21,22.20
2010,07,15,15,22,22.30
2010,07,15,15,23,22.40
2010,07,15,15,24,22.40
2010,07,15,15,25,22.30
2010,07,15,15,26,22.40
2010,07,15,15,27,22.50
2010,07,15,15,28,22.70
2010,07,15,15,29,22.80
2010,07,15,15,30,22.80
2010,07,15,15,31,22.80
2010,07,15,15,32,22.90
2010,07,15,15,33,22.90
2010,07,15,15,34,22.90
2010,07,15,15,35,22.90
2010,07,15,15,36,23.00
2010,07,15,15,37,23.00
2010,07,15,15,38,23.10
2010,07,15,15,39,23.10
2010,07,15,15,40,23.10
2010,07,15,15,41,23.10
2010,07,15,15,42,22.90
2010,07,15,15,43,22.80
2010,07,15,15,44,22.70
2010,07,15,15,45,22.60
2010,07,15,15,46,22.70
2010,07,15,15,47,22.80
2010,07,15,15,48,22.90
2010,07,15,15,49,22.90
2010,07,15,15,50,22.90
2010,07,15,15,51,23.00
2010,07,15,15,52,23.00
2010,07,15,15,53,23.10
2010,07,15,15,54,23.20
2010,07,15,15,55,23.40
2010,07,15,15,56,23.50
2010,07,15,15,57,23.50
2010,07,15,15,58,23.50
2010,07,15,15,59,23.30
2010,07,15,16,00,23.40
2010,07,15,16,01,23.50
2010,07,15,16,02,23.60
2010,07,15,16,03,23.50
2010,07,15,16,04,23.50
2010,07,15,16,05,23.60
2010,07,15,16,06,23.70
2010,07,15,16,07,23.80
2010,07,15,16,08,23.80
2010,07,15,16,09,23.80
2010,07,15,16,10,23.70
2010,07,15,16,11,23.70
2010,07,15,16,12,23.70
2010,07,15,16,13,23.70
2010,07,15,16,14,23.70
2010,07,15,16,15,23.70
2010,07,15,16,16,23.80
2010,07,15,16,17,23.70
2010,07,15,16,18,23.50
2010,07,15,16,19,23.30
2010,07,15,16,20,23.20
2010,07,15,16,21,23.20
2010,07,15,16,22,23.20
2010,07,15,16,23,23.20
2010,07,15,16,24,23.20
2010,07,15,16,25,23.20
2010,07,15,16,26,23.20
2010,07,15,16,27,23.00
2010,07,15,16,28,22.80
2010,07,15,16,29,22.60
2010,07,15,16,30,22.40
2010,07,15,16,31,22.30
2010,07,15,16,32,22.30
2010,07,15,16,33,22.30
2010,07,15,16,34,22.30
2010,07,15,16,35,22.30
2010,07,15,16,36,22.30
2010,07,15,16,37,22.20
2010,07,15,16,38,22.20
2010,07,15,16,39,22.20
2010,07,15,16,40,22.20
2010,07,15,16,41,22.30
2010,07,15,16,42,22.30
2010,07,15,16,43,22.40
2010,07,15,16,44,22.40
2010,07,15,16,45,22.40
2010,07,15,16,46,22.50
2010,07,15,16,47,22.50
2010,07,15,16,48,22.50
2010,07,15,16,49,22.60
2010,07,15,16,50,22.60
2010,07,15,16,51,22.60
2010,07,15,16,52,22.60
2010,07,15,16,53,22.50
2010,07,15,16,54,22.50
2010,07,15,16,55,22.40
2010,07,15,16,56,22.40
2010,07,15,16,57,22.40
2010,07,15,16,58,22.30
2010,07,15,16,59,22.20
2010,07,15,17,00,22.10
2010,07,15,17,01,22.10
2010,07,15,17,02,22.10
2010,07,15,17,03,22.20
2010,07,15,17,04,22.20
2010,07,15,17,05,22.30
2010,07,15,17,06,22.30
2010,07,15,17,07,22.20
2010,07,15,17,08,22.10
2010,07,15,17,09,21.90
2010,07,15,17,10,21.80
2010,07,15,17,11,21.70
2010,07,15,17,12,21.70
2010,07,15,17,13,21.70
2010,07,15,17,14,21.60
2010,07,15,17,15,21.60
2010,07,15,17,16,21.50
2010,07,15,17,17,21.40
2010,07,15,17,18,21.30
2010,07,15,17,19,21.30
2010,07,15,17,20,21.30
2010,07,15,17,21,21.30
2010,07,15,17,22,21.40
2010,07,15,17,23,21.50
2010,07,15,17,24,21.60
2010,07,15,17,25,21.70
2010,07,15,17,26,21.70
2010,07,15,17,27,21.80
2010,07,15,17,28,21.80
2010,07,15,17,29,21.90
2010,07,15,17,30,22.00
2010,07,15,17,31,22.00
2010,07,15,17,32,22.10
2010,07,15,17,33,22.20
2010,07,15,17,34,22.20
2010,07,15,17,35,22.20
2010,07,15,17,36,22.10
2010,07,15,17,37,22.10
2010,07,15,17,38,21.90
2010,07,15,17,39,21.80
2010,07,15,17,40,21.70
2010,07,15,17,41,21.80
2010,07,15,17,42,21.80
2010,07,15,17,43,21.80
2010,07,15,17,44,21.90
2010,07,15,17,45,22.00
2010,07,15,17,46,22.00
2010,07,15,17,47,22.10
2010,07,15,17,48,22.10
2010,07,15,17,49,22.10
2010,07,15,17,50,22.20
2010,07,15,17,51,22.20
2010,07,15,17,52,22.20
2010,07,15,17,53,22.20
2010,07,15,17,54,22.20
2010,07,15,17,55,22.20
2010,07,15,17,56,22.20
2010,07,15,17,57,22.20
2010,07,15,17,58,22.20
2010,07,15,17,59,22.20
2010,07,15,18,00,22.20
2010,07,15,18,01,22.20
2010,07,15,18,02,22.20
2010,07,15,18,03,22.10
2010,07,15,18,04,22.10
2010,07,15,18,05,22.10
2010,07,15,18,06,22.00
2010,07,15,18,07,22.00
2010,07,15,18,08,22.00
2010,07,15,18,09,22.00
2010,07,15,18,10,22.00
2010,07,15,18,11,22.00
2010,07,15,18,12,21.90
2010,07,15,18,13,21.90
2010,07,15,18,14,21.80
2010,07,15,18,15,21.80
2010,07,15,18,16,21.80
2010,07,15,18,17,21.80
2010,07,15,18,18,21.80
2010,07,15,18,19,21.80
2010,07,15,18,20,21.80
2010,07,15,18,21,21.80
2010,07,15,18,22,21.80
2010,07,15,18,23,21.90
2010,07,15,18,24,21.90
2010,07,15,18,25,22.00
2010,07,15,18,26,22.00
2010,07,15,18,27,22.00
2010,07,15,18,28,22.00
2010,07,15,18,29,21.90
2010,07,15,18,30,21.90
2010,07,15,18,31,21.90
2010,07,15,18,32,21.80
2010,07,15,18,33,21.80
2010,07,15,18,34,21.80
2010,07,15,18,35,21.80
2010,07,15,18,36,21.70
2010,07,15,18,37,21.70
2010,07,15,18,38,21.60
2010,07,15,18,39,21.60
2010,07,15,18,40,21.60
2010,07,15,18,41,21.50
2010,07,15,18,42,21.40
2010,07,15,18,43,21.40
2010,07,15,18,44,21.40
2010,07,15,18,45,21.40
2010,07,15,18,46,21.30
2010,07,15,18,47,21.30
2010,07,15,18,48,21.30
2010,07,15,18,49,21.30
2010,07,15,18,50,21.30
2010,07,15,18,51,21.30
2010,07,15,18,52,21.20
2010,07,15,18,53,21.20
2010,07,15,18,54,21.20
2010,07,15,18,55,21.10
2010,07,15,18,56,21.10
2010,07,15,18,57,21.10
2010,07,15,18,58,21.00
2010,07,15,18,59,21.00
2010,07,15,19,00,21.00
2010,07,15,19,01,21.00
2010,07,15,19,02,21.00
2010,07,15,19,03,21.00
2010,07,15,19,04,20.90
2010,07,15,19,05,20.90
2010,07,15,19,06,20.90
2010,07,15,19,07,20.90
2010,07,15,19,08,20.90
2010,07,15,19,09,20.90
2010,07,15,19,10,20.90
2010,07,15,19,11,20.90
2010,07,15,19,12,20.90
2010,07,15,19,13,20.80
2010,07,15,19,14,20.80
2010,07,15,19,15,20.80
2010,07,15,19,16,20.70
2010,07,15,19,17,20.70
2010,07,15,19,18,20.70
2010,07,15,19,19,20.70
2010,07,15,19,20,20.60
2010,07,15,19,21,20.60
2010,07,15,19,22,20.60
2010,07,15,19,23,20.60
2010,07,15,19,24,20.50
2010,07,15,19,25,20.50
2010,07,15,19,26,20.40
2010,07,15,19,27,20.30
2010,07,15,19,28,20.30
2010,07,15,19,29,20.20
2010,07,15,19,30,20.10
2010,07,15,19,31,20.10
2010,07,15,19,32,20.00
2010,07,15,19,33,19.90
2010,07,15,19,34,19.90
2010,07,15,19,35,19.80
2010,07,15,19,36,19.80
2010,07,15,19,37,19.80
2010,07,15,19,38,19.70
2010,07,15,19,39,19.70
2010,07,15,19,40,19.70
2010,07,15,19,41,19.60
2010,07,15,19,42,19.60
2010,07,15,19,43,19.60
2010,07,15,19,44,19.60
2010,07,15,19,45,19.50
2010,07,15,19,46,19.50
2010,07,15,19,47,19.50
2010,07,15,19,48,19.50
2010,07,15,19,49,19.40
2010,07,15,19,50,19.40
2010,07,15,19,51,19.30
2010,07,15,19,52,19.30
2010,07,15,19,53,19.30
2010,07,15,19,54,19.30
2010,07,15,19,55,19.30
2010,07,15,19,56,19.20
2010,07,15,19,57,19.20
2010,07,15,19,58,19.20
2010,07,15,19,59,19.20
2010,07,15,20,00,19.20
2010,07,15,20,01,19.10
2010,07,15,20,02,19.10
2010,07,15,20,03,19.10
2010,07,15,20,04,19.10
2010,07,15,20,05,19.10
2010,07,15,20,06,19.10
2010,07,15,20,07,19.10
2010,07,15,20,08,19.10
2010,07,15,20,09,19.10
2010,07,15,20,10,19.00
2010,07,15,20,11,19.00
2010,07,15,20,12,19.00
2010,07,15,20,13,19.00
2010,07,15,20,14,19.00
2010,07,15,20,15,18.90
2010,07,15,20,16,18.90
2010,07,15,20,17,18.90
2010,07,15,20,18,18.90
2010,07,15,20,19,18.90
2010,07,15,20,20,18.80
2010,07,15,20,21,18.80
2010,07,15,20,22,18.80
2010,07,15,20,23,18.80
2010,07,15,20,24,18.80
2010,07,15,20,25,18.80
2010,07,15,20,26,18.80
2010,07,15,20,27,18.80
2010,07,15,20,28,18.70
2010,07,15,20,29,18.70
2010,07,15,20,30,18.70
2010,07,15,20,31,18.70
2010,07,15,20,32,18.60
2010,07,15,20,33,18.60
2010,07,15,20,34,18.60
2010,07,15,20,35,18.60
2010,07,15,20,36,18.60
2010,07,15,20,37,18.60
2010,07,15,20,38,18.60
2010,07,15,20,39,18.60
2010,07,15,20,40,18.50
2010,07,15,20,41,18.50
2010,07,15,20,42,18.50
2010,07,15,20,43,18.50
2010,07,15,20,44,18.50
2010,07,15,20,45,18.40
2010,07,15,20,46,18.40
2010,07,15,20,47,18.40
2010,07,15,20,48,18.40
2010,07,15,20,49,18.40
2010,07,15,20,50,18.40
2010,07,15,20,51,18.30
2010,07,15,20,52,18.30
2010,07,15,20,53,18.30
2010,07,15,20,54,18.30
2010,07,15,20,55,18.30
2010,07,15,20,56,18.20
2010,07,15,20,57,18.20
2010,07,15,20,58,18.20
2010,07,15,20,59,18.10
2010,07,15,21,00,18.10
2010,07,15,21,01,18.10
2010,07,15,21,02,18.10
2010,07,15,21,03,18.10
2010,07,15,21,04,18.00
2010,07,15,21,05,18.00
2010,07,15,21,06,17.90
2010,07,15,21,07,17.90
2010,07,15,21,08,17.90
2010,07,15,21,09,17.90
2010,07,15,21,10,17.80
2010,07,15,21,11,17.80
2010,07,15,21,12,17.70
2010,07,15,21,13,17.70
2010,07,15,21,14,17.70
2010,07,15,21,15,17.60
2010,07,15,21,16,17.60
2010,07,15,21,17,17.60
2010,07,15,21,18,17.50
2010,07,15,21,19,17.50
2010,07,15,21,20,17.50
2010,07,15,21,21,17.40
2010,07,15,21,22,17.40
2010,07,15,21,23,17.40
2010,07,15,21,24,17.30
2010,07,15,21,25,17.30
2010,07,15,21,26,17.30
2010,07,15,21,27,17.20
2010,07,15,21,28,17.20
2010,07,15,21,29,17.20
2010,07,15,21,30,17.10
2010,07,15,21,31,17.00
2010,07,15,21,32,17.00
2010,07,15,21,33,16.90
2010,07,15,21,34,16.90
2010,07,15,21,35,16.90
2010,07,15,21,36,16.90
2010,07,15,21,37,16.80
2010,07,15,21,38,16.80
2010,07,15,21,39,16.80
2010,07,15,21,40,16.80
2010,07,15,21,41,16.80
2010,07,15,21,42,16.70
2010,07,15,21,43,16.70
2010,07,15,21,44,16.70
2010,07,15,21,45,16.70
2010,07,15,21,46,16.70
2010,07,15,21,47,16.70
2010,07,15,21,48,16.70
2010,07,15,21,49,16.70
2010,07,15,21,50,16.70
2010,07,15,21,51,16.70
2010,07,15,21,52,16.70
2010,07,15,21,53,16.70
2010,07,15,21,54,16.70
2010,07,15,21,55,16.70
2010,07,15,21,56,16.70
2010,07,15,21,57,16.70
2010,07,15,21,58,16.70
2010,07,15,21,59,16.70
2010,07,15,22,00,16.70
2010,07,15,22,01,16.70
2010,07,15,22,02,16.70
2010,07,15,22,03,16.60
2010,07,15,22,04,16.60
2010,07,15,22,05,16.60
2010,07,15,22,06,16.60
2010,07,15,22,07,16.50
2010,07,15,22,08,16.50
2010,07,15,22,09,16.50
2010,07,15,22,10,16.40
2010,07,15,22,11,16.40
2010,07,15,22,12,16.40
2010,07,15,22,13,16.30
2010,07,15,22,14,16.30
2010,07,15,22,15,16.30
2010,07,15,22,16,16.30
2010,07,15,22,17,16.30
2010,07,15,22,18,16.30
2010,07,15,22,19,16.30
2010,07,15,22,20,16.30
2010,07,15,22,21,16.30
2010,07,15,22,22,16.30
2010,07,15,22,23,16.30
2010,07,15,22,24,16.30
2010,07,15,22,25,16.30
2010,07,15,22,26,16.30
2010,07,15,22,27,16.30
2010,07,15,22,28,16.30
2010,07,15,22,29,16.30
2010,07,15,22,30,16.30
2010,07,15,22,31,16.20
2010,07,15,22,32,16.20
2010,07,15,22,33,16.20
2010,07,15,22,34,16.20
2010,07,15,22,35,16.20
2010,07,15,22,36,16.10
2010,07,15,22,37,16.10
2010,07,15,22,38,16.10
2010,07,15,22,39,16.10
2010,07,15,22,40,16.10
2010,07,15,22,41,16.10
2010,07,15,22,42,16.10
2010,07,15,22,43,16.00
2010,07,15,22,44,16.00
2010,07,15,22,45,16.00
2010,07,15,22,46,16.00
2010,07,15,22,47,16.00
2010,07,15,22,48,15.90
2010,07,15,22,49,15.90
2010,07,15,22,50,15.90
2010,07,15,22,51,15.90
2010,07,15,22,52,15.90
2010,07,15,22,53,15.90
2010,07,15,22,54,15.90
2010,07,15,22,55,15.90
2010,07,15,22,56,15.90
2010,07,15,22,57,15.80
2010,07,15,22,58,15.80
2010,07,15,22,59,15.80
2010,07,15,23,00,15.80
2010,07,15,23,01,15.70
2010,07,15,23,02,15.70
2010,07,15,23,03,15.70
2010,07,15,23,04,15.60
2010,07,15,23,05,15.60
2010,07,15,23,06,15.60
2010,07,15,23,07,15.60
2010,07,15,23,08,15.60
2010,07,15,23,09,15.50
2010,07,15,23,10,15.50
2010,07,15,23,11,15.50
2010,07,15,23,12,15.40
2010,07,15,23,13,15.40
2010,07,15,23,14,15.40
2010,07,15,23,15,15.40
2010,07,15,23,16,15.40
2010,07,15,23,17,15.30
2010,07,15,23,18,15.30
2010,07,15,23,19,15.30
2010,07,15,23,20,15.30
2010,07,15,23,21,15.30
2010,07,15,23,22,15.30
2010,07,15,23,23,15.30
2010,07,15,23,24,15.30
2010,07,15,23,25,15.20
2010,07,15,23,26,15.20
2010,07,15,23,27,15.20
2010,07,15,23,28,15.20
2010,07,15,23,29,15.20
2010,07,15,23,30,15.20
2010,07,15,23,31,15.20
2010,07,15,23,32,15.20
2010,07,15,23,33,15.20
2010,07,15,23,34,15.20
2010,07,15,23,35,15.20
2010,07,15,23,36,15.10
2010,07,15,23,37,15.10
2010,07,15,23,38,15.10
2010,07,15,23,39,15.10
2010,07,15,23,40,15.10
2010,07,15,23,41,15.10
2010,07,15,23,42,15.10
2010,07,15,23,43,15.10
2010,07,15,23,44,15.10
2010,07,15,23,45,15.00
2010,07,15,23,46,15.00
2010,07,15,23,47,15.00
2010,07,15,23,48,15.00
2010,07,15,23,49,15.00
2010,07,15,23,50,15.00
2010,07,15,23,51,15.00
2010,07,15,23,52,15.00
2010,07,15,23,53,15.00
2010,07,15,23,54,15.00
2010,07,15,23,55,15.00
2010,07,15,23,56,15.00
2010,07,15,23,57,15.00
2010,07,15,23,58,15.00
2010,07,15,23,59,15.00
